Location: Unspecified
(0.0000°N, 0.0000°E)
Time: 19:03:57
(UTC+01:00)

Tiros 1 despin weight - All Passes

Search period start: 27 February 2017 00:00
Search period end: 09 March 2017 00:00
Orbit: 595 x 644 km, 48.2° (Epoch: 26 February)

Date Brightness Start Highest point End Pass type
(mag) Time Alt. Az. Time Alt. Az. Time Alt. Az.
27 Feb - 09:55:36 10° SSE 09:57:16 12° SE 09:58:55 10° ESE daylight
27 Feb - 11:34:27 10° SW 11:38:42 47° NW 11:42:58 10° NNE daylight
27 Feb - 22:02:16 10° N 22:05:49 21° NE 22:09:21 10° E night (unlit)
27 Feb - 23:43:10 10° WNW 23:47:16 30° SW 23:51:20 10° S night (unlit)
28 Feb - 10:10:23 10° SSW 10:14:20 32° SE 10:18:16 10° ENE daylight
28 Feb - 11:52:49 10° W 11:55:44 17° NW 11:58:41 10° N daylight
28 Feb - 22:18:15 10° NNW 22:22:51 56° NE 22:27:26 10° SE night (unlit)
01 Mar - 00:02:46 10° WSW 00:04:21 11° SW 00:05:55 10° SSW night (unlit)
01 Mar - 10:26:55 10° SW 10:31:20 86° NW 10:35:45 10° NE daylight
01 Mar - 20:56:21 10° NNE 20:58:22 13° NE 21:00:22 10° ENE visible
01 Mar - 22:35:18 10° NW 22:39:52 51° SW 22:44:25 10° SSE night (unlit)
02 Mar - 09:03:51 10° S 09:06:57 19° SE 09:10:03 10° E daylight
02 Mar - 10:44:30 10° WSW 10:48:21 29° NW 10:52:12 10° N daylight
02 Mar - 21:11:16 10° NNW 21:15:27 32° NE 21:19:38 10° ESE visible
02 Mar - 22:53:30 10° W 22:56:54 20° SW 23:00:18 10° S night (unlit)
03 Mar - 09:19:42 10° SSW 09:23:59 51° SE 09:28:16 10° NE daylight
03 Mar - 11:04:19 10° WNW 11:05:26 11° NW 11:06:33 10° NW daylight
03 Mar - 21:27:46 10° NW 21:32:28 89° ENE 21:37:10 10° SE visible
04 Mar - 07:58:29 10° SE 07:59:32 11° SE 08:00:34 10° ESE daylight
04 Mar - 09:36:41 10° SW 09:40:59 52° NW 09:45:16 10° NNE daylight
04 Mar - 20:04:40 10° N 20:08:01 19° NE 20:11:23 10° E visible
04 Mar - 21:45:16 10° WNW 21:49:28 33° SW 21:53:41 10° SSE visible
05 Mar - 08:12:46 10° S 08:16:37 29° SE 08:20:26 10° ENE daylight
05 Mar - 09:54:54 10° W 09:58:01 19° NW 10:01:08 10° N daylight
05 Mar - 20:20:31 10° NNW 20:25:03 51° NE 20:29:37 10° SE visible
05 Mar - 22:04:27 10° WSW 22:06:33 13° SW 22:08:39 10° SSW visible
06 Mar - 08:29:12 10° SW 08:33:38 85° SE 08:38:02 10° NE daylight
06 Mar - 18:59:06 10° NNE 19:00:34 11° NE 19:02:02 10° ENE daylight
06 Mar - 20:37:27 10° NW 20:42:03 57° SW 20:46:41 10° SSE visible
07 Mar - 07:06:18 10° S 07:09:13 17° SE 07:12:07 10° E daylight
07 Mar - 08:46:41 10° WSW 08:50:37 32° NW 08:54:34 10° NNE daylight
07 Mar - 19:13:35 10° N 19:17:38 29° NE 19:21:44 10° ESE daylight
07 Mar - 20:55:31 10° W 20:59:06 21° SW 21:02:41 10° S visible
08 Mar - 07:22:00 10° SSW 07:26:16 46° SE 07:30:30 10° NE daylight
08 Mar - 09:06:00 10° WNW 09:07:41 12° NW 09:09:22 10° NNW daylight
08 Mar - 19:29:59 10° NW 19:34:39 82° NE 19:39:21 10° SE visible
